Location: North Evanston
(42.0634°N, 87.6976°W)
Time: 03:23:10
(UTC+00:00)

Transit 2A Rocket - Pass Details

Date: 18 May 2026
Orbit: 589 x 893 km, 66.7° (Epoch: 9 June)

Event Time Altitude Azimuth Distance (km) Brightness Sun altitude
Rises 07:16:43 0° 342° (NNW) 3,018 8.8 -25.0°
Reaches altitude 10° 07:20:11 10° 8° (N) 2,039 8.2 -24.7°
Maximum altitude 07:22:35 14° 40° (NE) 1,749 7.8 -24.5°
Drops below altitude 10° 07:24:56 10° 72° (ENE) 1,967 7.7 -24.4°
Sets 07:28:09 0° 98° (E) 2,835 8.2 -24.1°
